www.pogodaiklimat.ru

Погода и климат >> Архив погоды >> Сенегал >> Дакар


АРХИВ ПОГОДЫ в Дакаре

Время (UTC), дата Ветер
(напр.,м/с)
 
Видим.   Явления Облачность Т
(С)
Тd
(С)
f
(%)
Тe
(С)
Тes
(С)
Комфортность P
(гПа)
Po
(гПа)
Тmin
(С)
Tmax
(С)
R
(мм)
R24
(мм)
S
(см)
18 16.07 ЮЗ 3 10 км 6/0
[Ac trans Ci sp]
+27.4 +21.5 70 +35 +37 очень
душно
1010.8 1007.6 +29.0
21 16.07 С 3 8000 м 5/0
[Ac trans]
+25.5 +21.5 79 +33 +33 очень
душно
1013.0 1011.2
00 17.07 З 1 8000 м 6/0
[Ac trans]
+25.5 +21.8 80 +33 +33 очень
душно
1014.0 1010.8
03 17.07 ЮЗ 3 8000 м 5/0
[Ac trans]
+25.1 +21.8 82 +32 +32 очень
душно
1013.0 1009.7
06 17.07 З 1 8000 м 6/3 400 м
[Sc Ac trans]
+25.0 +22.0 83 +32 +32 очень
душно
1013.1 1009.8 +24.9
09 17.07 З 2 10 км 8/5 400 м
[Sc Ac trans Ci sp]
+26.0 +22.3 80 +34 +36 очень
душно
1014.9 1011.7
12 17.07 З 2 10 км 9/5 400 м
[Sc Ac As]
+27.4 +22.6 75 +36 +41 очень
душно
1016.0 1012.7
15 17.07 Ю 3 10 км 8/3 450 м
[Sc Ac trans Ci sp]
+31.0 +23.4 64 +42 +48 опасность
перегрева
1014.7 1011.4
18 17.07 ЮЗ 1 10 км 8/0
[Ac As Ci sp]
+29.5 +23.3 69 +40 +41 очень
душно
1014.5 1011.3 +31.3
21 17.07 З 3 8000 м 4/0
[Ac trans]
+26.6 +23.2 82 +36 +36 очень
душно
1015.3 1012.0
00 18.07 З 3 8000 м 9/0
[Ac As]
+26.8 +23.8 84 +37 +37 очень
душно
1015.5 1012.4
06 18.07 З 3 8000 м 8/8 400 м
[Sc]
+25.8 +23.9 89 +35 +35 очень
душно
1014.7 1011.5 +25.6
09 18.07 З 3 10 км 9/9 400 м
[Sc]
+26.7 +24.3 87 +37 +38 очень
душно
1016.2 1013.0
12 18.07 В 5 10 км 9/5 450 м
[Cu med, cong Ac cast]
+28.1 +24.1 79 +39 +41 очень
душно
1016.8 1013.5
15 18.07 З 5 10 км 8/6 450 м
[Cu med, cong Ac cast]
+29.0 +24.0 74 +40 +42 очень
душно
1015.2 1011.9
18 18.07 З 5 10 км 9/5 450 м
[Cu med, cong Ac cast]
+27.3 +23.2 78 +37 +37 очень
душно
1014.3 1011.1 +29.3
21 18.07 З 5 8000 м 8/5 330 м
[Sc Ac trans]
+26.0 +23.1 84 +35 +35 очень
душно
1014.5 1011.2
00 19.07 СЗ 5 8000 м 3/3 400 м
[Sc]
+25.5 +22.7 85 +34 +34 очень
душно
1012.3 1012.0
03 19.07 З 4 8000 м ясно +25.0 +22.6 87 +33 +33 очень
душно
1013.8 1010.5
06 19.07 З 4 8000 м 6/6 400 м
[Sc]
+24.6 +20.2 77 +30 +30 очень
душно
1013.0 1009.8 +24.3
09 19.07 З 5 10 км 6/6 400 м
[Sc]
+25.5 +21.3 78 +32 +34 очень
душно
1013.8 1010.5
12 19.07 СЗ 6 10 км 9/9 400 м
[Cu med, cong Ci sp]
+26.7 +21.5 73 +34 +35 очень
душно
1014.1 1010.8
15 19.07 С 5 10 км 6/6 400 м
[]
+27.6 +20.9 67 +35 +38 очень
душно
1013.1 1009.9
18 19.07 З 4 10 км 6/6 330 м
[Sc]
+26.4 +21.0 72 +33 +34 очень
душно
1011.9 1008.6 +28.1
21 19.07 СЗ 3 8000 м 5/5 330 м
[Sc]
+25.1 +20.5 76 +31 +31 очень
душно
1013.0 1009.7
00 20.07 З 3 8000 м 4/4 330 м
[Sc]
+24.6 +20.3 77 +30 +30 очень
душно
1013.3 1010.0
03 20.07 З 3 8000 м 4/4 330 м
[Sc]
+24.4 +20.8 80 +30 +30 очень
душно
1012.0 1008.8
06 20.07 З 2 8000 м 5/5 330 м
[Sc]
+24.1 +20.9 82 +30 +30 очень
душно
1012.4 1009.1 +23.9
09 20.07 СЗ 2 10 км 6/5 400 м
[Cu med, cong Ci sp]
+25.5 +20.8 75 +32 +35 очень
душно
1013.3 1010.0
12 20.07 С 4 10 км 4/4 480 м
[Sc]
+27.9 +21.7 69 +36 +44 очень
душно
1013.4 1010.2
15 20.07 С 3 10 км 4/3 400 м
[Sc Cc]
+28.0 +21.8 69 +36 +46 очень
душно
1012.7 1009.4
18 20.07 С 3 10 км 4/1 450 м
[Sc Ac trans Ci sp]
+27.4 +22.4 74 +36 +38 очень
душно
1012.2 1008.9 +28.8
21 20.07 З 2 8000 м ясно +25.7 +22.2 81 +33 +33 очень
душно
1013.1 1009.8
00 21.07 З 2 8000 м 5/3 400 м
[Sc Ac trans]
+25.5 +22.6 84 +34 +34 очень
душно
1014.5 1011.2
03 21.07 С 1 8000 м 4/1 330 м
[Sc Ac trans]
+25.0 +22.6 87 +33 +33 очень
душно
1013.8 1010.5
06 21.07 З 1 8000 м 4/0
[Ac trans Ci sp]
+25.1 +22.6 86 +33 +33 очень
душно
1013.6 1010.5 +23.5
09 21.07 З 2 10 км 1/1 400 м
[Sc]
+27.0 +23.1 79 +36 +41 очень
душно
1014.3 1011.1
12 21.07 С 6 10 км 3/3 480 м
[Sc]
+28.8 +23.9 75 +40 +45 очень
душно
1014.9 1011.6
15 21.07 С 4 10 км 4/1 400 м
[Sc Ac trans]
+29.4 +23.5 71 +40 +49 очень
душно
1013.2 1010.7
18 21.07 З 4 10 км 1/1 300 м
[Sc]
+28.7 +24.0 76 +40 +42 очень
душно
1013.3 1010.1 +29.8
00 22.07 З 3 8000 м ясно +26.1 +23.5 86 +35 +35 очень
душно
1014.6 1011.4
03 22.07 С 5 8000 м ясно +26.3 +23.3 84 +36 +36 очень
душно
1013.5 1010.3
06 22.07 С 5 8000 м ясно +26.2 +23.3 84 +35 +35 очень
душно
1012.9 1019.6 +26.2
09 22.07 СЗ 4 10 км ясно +27.3 +23.6 80 +37 +41 очень
душно
1012.9 1009.7
12 22.07 З 5 10 км 6/0
[Ac trans]
+29.6 +23.0 68 +40 +46 очень
душно
1012.3 1009.1
15 22.07 З 6 10 км 5/0
[Ac trans]
+30.0 +22.1 63 +39 +43 очень
душно
1010.9 1007.6
18 22.07 СЗ 3 10 км 6/5 400 м
[Cu med, cong Ac trans]
+27.4 +22.7 76 +36 +37 очень
душно
1010.2 1007.0 +30.2
21 22.07 З 2 8000 м 5/5 400 м
[Sc]
+25.8 +22.4 82 +34 +34 очень
душно
1010.9 1007.6
00 23.07 СЗ 2 8000 м 4/4 400 м
[Sc]
+25.5 +22.4 83 +33 +33 очень
душно
1011.9 1008.4
03 23.07 С 3 8000 м 5/5 400 м
[Sc]
+25.3 +21.9 81 +33 +33 очень
душно
1010.3 1007.1
06 23.07 штиль 0 8000 м 5/5 400 м
[Sc]
+25.0 +22.0 83 +32 +32 очень
душно
1010.1 1006.8 +24.9
09 23.07 штиль 0 10 км 6/5 400 м
[Sc Ci sp]
+26.3 +21.9 77 +34 +38 очень
душно
1010.9 1007.6
12 23.07 ЮЗ 2 10 км 4/3 400 м
[Sc Ci sp]
+29.4 +22.7 67 +39 +52 опасность
солнечного
удара
1010.8 1007.6
15 23.07 Ю 3 10 км 4/0
[Ci sp]
+30.4 +22.4 62 +39 +53 опасность
солнечного
удара
1009.5 1006.3

 

Местоположение метеостанции Дакар (Сенегал): широта 14.73 долгота -17.50 высота над уровнем моря 24 м.

В архиве по умолчанию представлена погода в Дакаре за последнюю неделю. Архивные данные за месяц целиком и за предыдущие месяцы, начиная с января 2011 года, Вы можете получить, выбрав интересующий диапазон дат из раскрывающегося списка и нажав кнопку "Ввод!".


*Определитесь, кто Вы:
робот инопланетянин человек

Внимание! Время в таблицах - всемирное. Для получения местного времени необходимо прибавить поправку, которая равна 0 ч.

Смотрите также архив погоды в соседних городах и на ближайших метеорологических станциях:

Погода в Диурбеле (Сенегал) (137 км)
Погода в Каолаке (Сенегал) (169 км)
Погода в Банжуле (Гамбия) (180 км)
Погода в Банжуле Half-Die (Гамбия) (182 км)
Погода в Сент-Луисе (Сенегал) (185 км)
Погода в Кереване (Гамбия) (205 км)
Погода в Сапу (Гамбия) (213 км)
Погода в Сибаноре (Гамбия) (219 км)
Погода в Женое (Гамбия) (250 км)
Погода в Кауере (Гамбия) (261 км)

Пояснения к столбцам:

Ветер - указаны скорость ветра в м/с - средняя за 10 мин, порывы в срок и между сроками (в фигурных скобках) и направление, откуда дует ветер: С - северный, СВ - северо-восточный, В - восточный, ЮВ - юго-восточный, Ю - южный, ЮЗ - юго-западный, З - западный, СЗ - северо-западный.
Видимость - горизонтальная дальность видимости в метрах или километрах. При видимости от 1 до 10 км при отсутствии осадков обычно наблюдается дымка, при ухудшении видимости до 1 км и менее - туман. В сухую погоду видимость может ухудшаться дымом, пылью или мглою.
Явления - указаны атмосферные явления, наблюдавшиеся в срок или в последний час перед сроком; фигурными скобками обозначены явления, наблюдавшиеся между сроками (за 1-3 часа до срока); квадратными скобками обозначены град или гололедные отложения с указанием их диаметра в мм.
Облачность - указаны через наклонную черту общая и нижняя облачность в баллах и высота нижней границы облаков в метрах; квадратными скобками обозначены формы облаков: Ci - перистые, Cs - перисто-слоистые, Cc - перисто-кучевые, Ac - высококучевые, As - высокослоистые, Sc - слоисто-кучевые, Ns - слоисто-дождевые, Cu - кучевые, Cb - кучево-дождевые. Подробнее классификацию облаков см. в Атласе облаков (PDF).
T - Температура воздуха - температура, измеренная на высоте 2 м над землей.
Td - Температура точки росы - температура, при понижении до которой содержащийся в воздухе водяной пар достигнет насыщения.
f - Относительная влажность воздуха - влажноcть воздуха, измеренная на высоте 2 м над землей.
Te - Эффективная температура - температура, которую ощущает одетый по сезону человек в тени. Характеристика душности погоды. При расчете учитывается влияние влажности воздуха и скорости ветра на теплоощущения человека.
Tes - Эффективная температура на солнце - температура, которую ощущает человек, с поправкой на солнечный нагрев. Характеристика знойности погоды. Зависит от высоты солнца над горизонтом, облачности и скорости ветра. Ночью, в пасмурную погоду, а также при ветре 12 м/с и более поправка равна нулю.
P - Атмосферное давление - приведенное к уровню моря атмосферное давление.
Po - Атмосферное давление - измеренное на уровне метеостанции атмосферное давление.
Tmin - Минимальная температура - минимум температуры воздуха на высоте 2 м над землей.
Tmax - Максимальная температура - максимум температуры воздуха на высоте 2 м над землей.
R - Количество осадков - Количество выпавших осадков за период времени, мм. При наведении курсора мыши на число - период времени, за который выпало указанное количество осадков.
R24 - Количество осадков - Количество выпавших осадков за 24 часа, мм.
S - Снежный покров - Высота снежного покрова, см. При наведении курсора мыши на число - состояние снежного покрова и степень покрытия местности в баллах.